Location: Haliburton Scout Reserve
(45.0900°N, 78.3200°W)
Time: 03:47:00
(UTC-04:00)

PCSat - Pass Details

Date: 29 May 2022
Orbit: 784 x 795 km, 67.1° (Epoch: 24 June)

Event Time Altitude Azimuth Distance (km) Brightness Sun altitude
Rises 03:39:56 0° 314° (NW) 3,303 12.9 -15.1°
Reaches altitude 10° 03:43:03 10° 296° (WNW) 2,367 11.9 -14.8°
Maximum altitude 03:46:37 18° 255° (WSW) 1,858 11.0 -14.4°
Enters shadow 03:47:20 18° 245° (WSW) 1,879 11.0 -14.3°
